Le nostre stazioni meteo in Italia

Pubblicità
Il mio iltempo24.it
Cozzo Spadaro, Italia (16480): Temperatura & dewpoint: 17.05.2017 16:00:00 - 23.05.2017 16:00:00 (CEST)Cozzo Spadaro, Italia (16480): velocità del vento: 17.05.2017 16:00:00 - 23.05.2017 16:00:00 (CEST)Cozzo Spadaro, Italia (16480): direzione del vento: 17.05.2017 16:00:00 - 23.05.2017 16:00:00 (CEST)Cozzo Spadaro, Italia (16480): reduced air pressure: 17.05.2017 16:00:00 - 23.05.2017 16:00:00 (CEST)Cozzo Spadaro, Italia (16480): visibility: 17.05.2017 16:00:00 - 23.05.2017 16:00:00 (CEST)Cozzo Spadaro, Italia (16480): ore di luce: 17.05.2017 16:00:00 - 23.05.2017 16:00:00 (CEST)
Data & Tempo tt [°C] td [°C] ff [km/h] ff [kn] dd ppp [hPa] vv [km] sd [min]
23.05.2017 16:00:00 24,8 13,7 15 8 O 1017,0 25 60
23.05.2017 15:00:00 24,4 13,9 16 9 O 1017,4 25 60
23.05.2017 14:00:00 24,4 14,8 13 7 OSO 1017,7 25 60
23.05.2017 13:00:00 24,0 16,5 9 5 OSO 1017,9 25 60
23.05.2017 12:00:00 23,8 16,6 11 6 OSO 1017,2 25 60
23.05.2017 11:00:00 23,0 16,3 8 4 O 1017,0 25 60
23.05.2017 10:00:00 22,8 14,6 8 4 SSE 1017,0 25 60
23.05.2017 09:00:00 23,0 12,0 2 1 E 1017,0 25 60
23.05.2017 08:00:00 22,0 10,2 4 2 NO 1016,9 25 48
23.05.2017 07:00:00 - - - - - - - -
23.05.2017 06:00:00 - - - - - - - -
23.05.2017 05:00:00 - - - - - - - -
23.05.2017 04:00:00 - - - - - - - -
23.05.2017 03:00:00 - - - - - - - -
23.05.2017 02:00:00 - - - - - - - -
23.05.2017 01:00:00 - - - - - - - -
23.05.2017 00:00:00 - - - - - - - -
22.05.2017 23:00:00 - - - - - - - -
22.05.2017 22:00:00 - - - - - - - -
22.05.2017 21:00:00 - - - - - - - -
22.05.2017 20:00:00 21,8 14,9 8 4 O 1016,1 25 0
22.05.2017 19:00:00 22,6 15,0 11 6 O 1016,1 25 36
22.05.2017 18:00:00 22,8 15,4 9 5 OSO 1016,2 25 60
22.05.2017 17:00:00 23,4 16,5 8 4 SO 1016,1 25 60
22.05.2017 16:00:00 23,8 17,3 8 4 S 1016,1 25 60
22.05.2017 15:00:00 24,6 18,3 9 5 E 1016,1 25 60
22.05.2017 14:00:00 24,6 18,8 15 8 E 1016,0 25 60
22.05.2017 13:00:00 24,6 18,1 16 9 E 1016,0 25 60
22.05.2017 12:00:00 24,2 17,2 13 7 ENE 1016,0 25 60
22.05.2017 11:00:00 24,2 17,2 8 4 E 1016,0 25 60
22.05.2017 10:00:00 23,2 14,2 8 4 E 1014,8 25 60
22.05.2017 09:00:00 22,8 13,8 5 3 NE 1013,9 25 60
22.05.2017 08:00:00 20,8 13,5 5 3 NNO 1014,0 25 36
22.05.2017 07:00:00 - - - - - - - -
22.05.2017 06:00:00 - - - - - - - -
22.05.2017 05:00:00 - - - - - - - -
22.05.2017 04:00:00 - - - - - - - -
22.05.2017 03:00:00 - - - - - - - -
22.05.2017 02:00:00 - - - - - - - -
22.05.2017 01:00:00 - - - - - - - -
22.05.2017 00:00:00 - - - - - - - -
21.05.2017 23:00:00 - - - - - - - -
21.05.2017 22:00:00 - - - - - - - -
21.05.2017 21:00:00 - - - - - - - -
21.05.2017 20:00:00 - - - - - - - -
21.05.2017 19:00:00 - - - - - - - -
21.05.2017 18:00:00 - - - - - - - -
21.05.2017 17:00:00 - - - - - - - -
21.05.2017 16:00:00 - - - - - - - -
21.05.2017 15:00:00 - - - - - - - -
21.05.2017 14:00:00 - - - - - - - -
21.05.2017 13:00:00 - - - - - - - -
21.05.2017 12:00:00 - - - - - - - -
21.05.2017 11:00:00 - - - - - - - -
21.05.2017 10:00:00 - - - - - - - -
21.05.2017 09:00:00 - - - - - - - -
21.05.2017 08:00:00 - - - - - - - -
21.05.2017 07:00:00 - - - - - - - -
21.05.2017 06:00:00 - - - - - - - -
21.05.2017 05:00:00 - - - - - - - -
21.05.2017 04:00:00 - - - - - - - -
21.05.2017 03:00:00 - - - - - - - -
21.05.2017 02:00:00 - - - - - - - -
21.05.2017 01:00:00 - - - - - - - -
21.05.2017 00:00:00 - - - - - - - -
20.05.2017 23:00:00 - - - - - - - -
20.05.2017 22:00:00 - - - - - - - -
20.05.2017 21:00:00 - - - - - - - -
20.05.2017 20:00:00 21,0 15,6 11 6 ONO 1014,7 18 12
20.05.2017 19:00:00 21,6 15,4 15 8 ONO 1014,1 20 60
20.05.2017 18:00:00 22,8 16,6 22 12 ONO 1014,0 20 60
20.05.2017 17:00:00 23,2 17,0 22 12 O 1014,0 20 60
20.05.2017 16:00:00 23,2 16,7 24 13 O 1014,8 20 60
20.05.2017 15:00:00 23,4 16,5 24 13 O 1014,9 20 60
20.05.2017 14:00:00 23,6 16,4 22 12 O 1015,8 20 60
20.05.2017 13:00:00 23,4 16,9 24 13 O 1015,9 20 60
20.05.2017 12:00:00 23,0 16,1 24 13 O 1016,0 20 60
20.05.2017 11:00:00 22,0 16,3 22 12 O 1016,0 20 60
20.05.2017 10:00:00 21,2 16,4 21 11 O 1016,0 20 60
20.05.2017 09:00:00 20,6 15,8 16 9 O 1016,0 18 60
20.05.2017 08:00:00 20,0 15,2 15 8 O 1016,0 18 48
20.05.2017 07:00:00 - - - - - - - -
20.05.2017 06:00:00 - - - - - - - -
20.05.2017 05:00:00 - - - - - - - -
20.05.2017 04:00:00 - - - - - - - -
20.05.2017 03:00:00 - - - - - - - -
20.05.2017 02:00:00 - - - - - - - -
20.05.2017 01:00:00 - - - - - - - -
20.05.2017 00:00:00 - - - - - - - -
19.05.2017 23:00:00 - - - - - - - -
19.05.2017 22:00:00 - - - - - - - -
19.05.2017 21:00:00 - - - - - - - -
19.05.2017 20:00:00 20,0 16,0 13 7 OSO 1016,0 20 0
19.05.2017 19:00:00 20,2 16,2 15 8 OSO 1016,0 25 48
19.05.2017 18:00:00 21,2 16,4 13 7 OSO 1016,0 25 60
19.05.2017 17:00:00 22,0 16,7 15 8 SO 1016,0 25 60
19.05.2017 16:00:00 22,2 17,1 15 8 SO 1016,0 25 60
19.05.2017 15:00:00 22,2 16,2 15 8 SO 1016,4 25 60
19.05.2017 14:00:00 22,0 16,9 15 8 OSO 1016,8 25 60
19.05.2017 13:00:00 22,0 17,4 13 7 SO 1016,8 20 60
19.05.2017 12:00:00 22,0 16,9 9 5 OSO 1016,7 20 60
19.05.2017 11:00:00 21,4 15,7 9 5 SSO 1016,7 20 60
19.05.2017 10:00:00 21,0 15,5 5 3 SSO 1016,2 20 60
19.05.2017 09:00:00 20,2 15,4 4 2 ENE 1016,1 20 60
19.05.2017 08:00:00 19,0 14,3 0 0 N 1016,1 20 48
19.05.2017 07:00:00 - - - - - - - -
19.05.2017 06:00:00 - - - - - - - -
19.05.2017 05:00:00 - - - - - - - -
19.05.2017 04:00:00 - - - - - - - -
19.05.2017 03:00:00 - - - - - - - -
19.05.2017 02:00:00 - - - - - - - -
19.05.2017 01:00:00 - - - - - - - -
19.05.2017 00:00:00 - - - - - - - -
18.05.2017 23:00:00 - - - - - - - -
18.05.2017 22:00:00 - - - - - - - -
18.05.2017 21:00:00 - - - - - - - -
18.05.2017 20:00:00 20,0 15,9 5 3 ESE 1014,4 20 0
18.05.2017 19:00:00 21,0 17,0 8 4 ESE 1014,3 25 48
18.05.2017 18:00:00 21,8 16,7 5 3 SSE 1014,3 25 60
18.05.2017 17:00:00 22,4 17,5 8 4 SE 1014,5 25 60
18.05.2017 16:00:00 22,8 17,0 8 4 S 1014,4 25 60
18.05.2017 15:00:00 23,4 15,7 9 5 OSO 1014,5 25 60
18.05.2017 14:00:00 23,6 15,7 9 5 S 1014,5 25 60
18.05.2017 13:00:00 23,6 15,4 8 4 S 1014,4 25 60
18.05.2017 12:00:00 23,6 13,2 8 4 SSE 1014,5 25 60
18.05.2017 11:00:00 23,6 12,6 5 3 SE 1014,6 25 60
18.05.2017 10:00:00 23,4 11,5 8 4 NE 1014,5 25 60
18.05.2017 09:00:00 22,4 12,1 4 2 ENE 1014,3 25 60
18.05.2017 08:00:00 21,0 11,1 0 0 N 1014,0 25 48
18.05.2017 07:00:00 - - - - - - - -
18.05.2017 06:00:00 - - - - - - - -
18.05.2017 05:00:00 - - - - - - - -
18.05.2017 04:00:00 - - - - - - - -
18.05.2017 03:00:00 - - - - - - - -
18.05.2017 02:00:00 - - - - - - - -
18.05.2017 01:00:00 - - - - - - - -
18.05.2017 00:00:00 - - - - - - - -
17.05.2017 23:00:00 - - - - - - - -
17.05.2017 22:00:00 - - - - - - - -
17.05.2017 21:00:00 - - - - - - - -
17.05.2017 20:00:00 20,2 16,3 9 5 O 1015,0 20 0
17.05.2017 19:00:00 20,6 15,6 9 5 O 1015,1 20 0
17.05.2017 18:00:00 20,6 16,2 11 6 ONO 1015,9 20 12
17.05.2017 17:00:00 21,8 15,4 13 7 O 1016,0 10 18
17.05.2017 16:00:00 23,0 16,3 11 6 OSO 1015,9 25 60

tt = Temperatura
td = dewpoint
ff = velocità del vento
dd = direzione del vento
ppp = reduced air pressure
vv = visibility
sd = ore di luce

Stazioni seguenti

WeatherPro
AMSI
MeteoEarth